TimeEST,TemperatureF,Dew PointF,Humidity,Sea Level PressureIn,VisibilityMPH,Wind Direction,Wind SpeedMPH,Gust SpeedMPH,PrecipitationIn,Events,Conditions,WindDirDegrees,DateUTC
12:53 AM,30.0,24.1,79,30.67,10.0,Calm,Calm,-,N/A,,Clear,0,2013-11-05 05:53:00
1:53 AM,28.9,24.1,82,30.65,10.0,Calm,Calm,-,N/A,,Clear,0,2013-11-05 06:53:00
2:53 AM,28.9,24.1,82,30.63,10.0,Calm,Calm,-,N/A,,Clear,0,2013-11-05 07:53:00
3:53 AM,28.9,24.1,82,30.65,10.0,Calm,Calm,-,N/A,,Clear,0,2013-11-05 08:53:00
4:53 AM,28.0,24.1,85,30.66,10.0,Calm,Calm,-,N/A,,Clear,0,2013-11-05 09:53:00
5:53 AM,27.0,24.1,89,30.66,10.0,Calm,Calm,-,N/A,,Clear,0,2013-11-05 10:53:00
6:53 AM,28.0,25.0,88,30.65,10.0,Calm,Calm,-,N/A,,Clear,0,2013-11-05 11:53:00
7:53 AM,33.1,26.1,75,30.66,10.0,Calm,Calm,-,N/A,,Scattered Clouds,0,2013-11-05 12:53:00
8:53 AM,39.0,26.1,60,30.66,10.0,Calm,Calm,-,N/A,,Partly Cloudy,0,2013-11-05 13:53:00
9:53 AM,42.1,27.0,55,30.66,10.0,Calm,Calm,-,N/A,,Overcast,0,2013-11-05 14:53:00
10:53 AM,46.9,30.0,52,30.63,10.0,WSW,3.5,-,N/A,,Mostly Cloudy,250,2013-11-05 15:53:00
11:53 AM,50.0,32.0,50,30.61,10.0,Calm,Calm,-,N/A,,Overcast,0,2013-11-05 16:53:00
12:53 PM,53.1,34.0,48,30.58,10.0,Variable,3.5,-,N/A,,Mostly Cloudy,0,2013-11-05 17:53:00
1:53 PM,53.1,35.1,50,30.56,10.0,Variable,4.6,-,N/A,,Scattered Clouds,0,2013-11-05 18:53:00
2:53 PM,53.1,35.1,50,30.54,10.0,South,5.8,-,N/A,,Scattered Clouds,170,2013-11-05 19:53:00
3:53 PM,52.0,35.1,53,30.52,10.0,SSE,3.5,-,N/A,,Partly Cloudy,160,2013-11-05 20:53:00
4:53 PM,52.0,35.1,53,30.53,10.0,Calm,Calm,-,N/A,,Clear,0,2013-11-05 21:53:00
5:53 PM,50.0,36.0,59,30.53,10.0,Calm,Calm,-,N/A,,Clear,0,2013-11-05 22:53:00
6:53 PM,50.0,36.0,59,30.54,10.0,Calm,Calm,-,N/A,,Clear,0,2013-11-05 23:53:00
7:53 PM,48.9,36.0,61,30.53,10.0,Calm,Calm,-,N/A,,Clear,0,2013-11-06 00:53:00
8:53 PM,48.0,37.0,66,30.52,10.0,Calm,Calm,-,N/A,,Clear,0,2013-11-06 01:53:00
9:53 PM,46.9,37.9,71,30.51,10.0,ESE,3.5,-,N/A,,Clear,120,2013-11-06 02:53:00
10:53 PM,46.0,37.9,73,30.49,10.0,ESE,3.5,-,N/A,,Clear,120,2013-11-06 03:53:00
11:53 PM,44.1,37.9,79,30.47,10.0,Calm,Calm,-,N/A,,Clear,0,2013-11-06 04:53:00